Location: Morlupo
(42.1333°N, 12.5000°E)
Time: 16:20:23
(UTC+00:00)

Exosat Rocket - Pass Details

Date: 18 September 2020
Orbit: 761 x 2514 km, 72.3° (Epoch: 25 October)

Event Time Altitude Azimuth Distance (km) Brightness Sun altitude
Rises 18:56:33 0° 187° (S) 3,865 7.0 -19.4°
Reaches altitude 10° 18:59:28 10° 183° (S) 2,716 6.1 -19.9°
Maximum altitude 19:05:13 53° 108° (ESE) 1,012 3.7 -20.9°
Drops below altitude 10° 19:10:05 10° 32° (NNE) 2,309 5.9 -21.8°
Sets 19:12:23 0° 28° (NNE) 3,232 6.7 -22.2°
